Saint-Armel Weather Station Historical Data
 
Daily Summary for January 31, 2023 Units:  Metric    English   Both
Daily Weekly Monthly Yearly Custom
  Current: High: Low: Average:
Temperature: 6 °C 8 °C 6 °C 6.7 °C
Dew Point: 5 °C 7 °C 5 °C 6.3 °C
Humidity: 96% 97% 96% 97%
Wind Speed: 2km/h 2km/h 0km/h 0.4km/h
Wind Gust: 5km/h 10km/h - -
WindNorth - - SSE
Pressure: 1031.6 hPa 1031.8 hPa 1030.8 hPa -
Precipitation: 0.0 mm      
Historical Graphs
 
 
Tabular Data for January 31, 2023
Time Temperature Dew Point Pressure Wind Wind Speed Wind Gust Humidity Rainfall Rate (Hourly)
00:00 8 °C 7 °C 1031.5 hPa Calm     96% 0.0 mm
00:05 8 °C 7 °C 1031.4 hPa Calm     96% 0.0 mm
00:10 8 °C 7 °C 1031.5 hPa Calm     96% 0.0 mm
00:15 8 °C 7 °C 1031.6 hPa Calm     97% 0.0 mm
00:20 8 °C 7 °C 1031.7 hPa Calm     97% 0.0 mm
00:25 8 °C 7 °C 1031.5 hPa Calm     97% 0.0 mm
00:30 8 °C 7 °C 1031.7 hPa Calm     97% 0.0 mm
00:35 8 °C 7 °C 1031.6 hPa Calm     97% 0.0 mm
00:40 8 °C 7 °C 1031.3 hPa Calm     97% 0.0 mm
00:45 7 °C 7 °C 1031.8 hPa Calm     97% 0.0 mm
00:55 7 °C 7 °C 1031.6 hPa Calm   3 km/h 97% 0.0 mm
01:00 8 °C 7 °C 1031.5 hPa ESE 2 km/h 3 km/h 97% 0.0 mm
01:05 8 °C 7 °C 1031.3 hPa Calm   3 km/h 97% 0.0 mm
01:10 7 °C 7 °C 1031.4 hPa Calm   2 km/h 97% 0.0 mm
01:15 7 °C 7 °C 1031.2 hPa Calm   2 km/h 97% 0.0 mm
01:20 7 °C 7 °C 1031.2 hPa Calm     97% 0.0 mm
01:25 7 °C 7 °C 1031.3 hPa Calm   2 km/h 97% 0.0 mm
01:30 7 °C 7 °C 1031.4 hPa Calm   2 km/h 97% 0.0 mm
01:35 7 °C 7 °C 1031.4 hPa Calm     97% 0.0 mm
01:40 7 °C 7 °C 1031.3 hPa Calm     97% 0.0 mm
01:45 7 °C 7 °C 1031.1 hPa Calm     97% 0.0 mm
01:50 7 °C 7 °C 1031.3 hPa Calm     97% 0.0 mm
01:55 7 °C 7 °C 1031.3 hPa Calm     97% 0.0 mm
02:00 7 °C 7 °C 1031.3 hPa Calm     97% 0.0 mm
02:05 7 °C 7 °C 1031.4 hPa Calm   2 km/h 97% 0.0 mm
02:10 7 °C 7 °C 1031.3 hPa Calm   2 km/h 97% 0.0 mm
02:15 7 °C 7 °C 1031.2 hPa WNW 2 km/h 3 km/h 97% 0.0 mm
02:20 7 °C 7 °C 1031.3 hPa NW 2 km/h 3 km/h 97% 0.0 mm
02:25 7 °C 7 °C 1031.3 hPa Calm   3 km/h 97% 0.0 mm
02:30 7 °C 7 °C 1031.4 hPa NW 2 km/h 6 km/h 97% 0.0 mm
02:35 7 °C 7 °C 1031.4 hPa NW 2 km/h 6 km/h 97% 0.0 mm
02:40 7 °C 7 °C 1031.2 hPa WNW 2 km/h 5 km/h 97% 0.0 mm
02:45 7 °C 7 °C 1031.2 hPa West 2 km/h 5 km/h 97% 0.0 mm
02:50 7 °C 7 °C 1031.3 hPa Calm   3 km/h 97% 0.0 mm
02:55 7 °C 7 °C 1031.4 hPa Calm     97% 0.0 mm
03:00 7 °C 7 °C 1031.4 hPa Calm     97% 0.0 mm
03:05 7 °C 7 °C 1031.5 hPa Calm     97% 0.0 mm
03:10 7 °C 7 °C 1031.4 hPa Calm     97% 0.0 mm
03:15 7 °C 7 °C 1031.5 hPa Calm     97% 0.0 mm
03:20 7 °C 7 °C 1031.5 hPa Calm     97% 0.0 mm
03:25 7 °C 7 °C 1031.1 hPa Calm     97% 0.0 mm
03:30 7 °C 7 °C 1031.1 hPa Calm     97% 0.0 mm
03:35 7 °C 7 °C 1031.3 hPa Calm     97% 0.0 mm
03:40 7 °C 7 °C 1030.8 hPa Calm     97% 0.0 mm
03:45 7 °C 6 °C 1031.2 hPa Calm     97% 0.0 mm
03:50 7 °C 6 °C 1031.2 hPa Calm     97% 0.0 mm
03:55 7 °C 6 °C 1031.1 hPa Calm     97% 0.0 mm
04:00 7 °C 6 °C 1031.1 hPa Calm     97% 0.0 mm
04:05 7 °C 6 °C 1031.1 hPa Calm     97% 0.0 mm
04:10 7 °C 6 °C 1031.0 hPa Calm     97% 0.0 mm
04:15 7 °C 6 °C 1031.1 hPa Calm     97% 0.0 mm
04:20 7 °C 6 °C 1031.4 hPa Calm     97% 0.0 mm
04:25 7 °C 6 °C 1031.4 hPa Calm     97% 0.0 mm
04:30 7 °C 6 °C 1031.3 hPa Calm     97% 0.0 mm
04:35 7 °C 6 °C 1031.2 hPa Calm   2 km/h 97% 0.0 mm
04:40 7 °C 6 °C 1031.3 hPa Calm   2 km/h 97% 0.0 mm
04:45 7 °C 6 °C 1031.4 hPa Calm   2 km/h 97% 0.0 mm
04:50 6 °C 6 °C 1031.3 hPa Calm   3 km/h 97% 0.0 mm
04:55 6 °C 6 °C 1031.4 hPa Calm   3 km/h 97% 0.0 mm
05:00 6 °C 6 °C 1031.3 hPa Calm   2 km/h 97% 0.0 mm
05:05 6 °C 6 °C 1031.5 hPa Calm   2 km/h 97% 0.0 mm
05:10 6 °C 6 °C 1031.4 hPa Calm   5 km/h 97% 0.0 mm
05:15 6 °C 6 °C 1031.4 hPa Calm   5 km/h 97% 0.0 mm
05:20 6 °C 6 °C 1031.5 hPa Calm   2 km/h 97% 0.0 mm
05:25 6 °C 6 °C 1031.5 hPa Calm   5 km/h 97% 0.0 mm
05:30 6 °C 6 °C 1031.4 hPa West 2 km/h 5 km/h 97% 0.0 mm
05:35 6 °C 6 °C 1031.3 hPa Calm   3 km/h 97% 0.0 mm
05:40 7 °C 6 °C 1031.5 hPa Calm   2 km/h 97% 0.0 mm
05:45 6 °C 6 °C 1031.3 hPa Calm     97% 0.0 mm
05:50 6 °C 6 °C 1031.4 hPa Calm   2 km/h 97% 0.0 mm
05:55 6 °C 6 °C 1031.2 hPa Calm   2 km/h 97% 0.0 mm
06:00 6 °C 6 °C 1031.4 hPa Calm   2 km/h 97% 0.0 mm
06:05 6 °C 6 °C 1031.5 hPa Calm   2 km/h 97% 0.0 mm
06:10 6 °C 6 °C 1031.2 hPa Calm   2 km/h 97% 0.0 mm
06:15 6 °C 6 °C 1031.4 hPa Calm   2 km/h 97% 0.0 mm
06:20 7 °C 6 °C 1031.2 hPa Calm   5 km/h 97% 0.0 mm
06:25 7 °C 6 °C 1031.4 hPa WNW 2 km/h 6 km/h 97% 0.0 mm
06:30 6 °C 6 °C 1031.3 hPa WNW 2 km/h 6 km/h 97% 0.0 mm
06:35 7 °C 6 °C 1031.4 hPa Calm   5 km/h 97% 0.0 mm
06:40 7 °C 6 °C 1031.2 hPa Calm   5 km/h 97% 0.0 mm
06:45 6 °C 6 °C 1031.3 hPa Calm   3 km/h 97% 0.0 mm
06:50 7 °C 6 °C 1031.4 hPa Calm   3 km/h 97% 0.0 mm
06:55 6 °C 6 °C 1031.3 hPa Calm   3 km/h 97% 0.0 mm
07:00 6 °C 6 °C 1031.5 hPa Calm   3 km/h 97% 0.0 mm
07:05 6 °C 6 °C 1031.5 hPa Calm   3 km/h 97% 0.0 mm
07:10 6 °C 6 °C 1031.3 hPa Calm   3 km/h 97% 0.0 mm
07:15 6 °C 6 °C 1031.5 hPa Calm     97% 0.0 mm
07:20 6 °C 6 °C 1031.1 hPa Calm     97% 0.0 mm
07:25 6 °C 5 °C 1031.2 hPa Calm   2 km/h 97% 0.0 mm
07:30 6 °C 6 °C 1031.3 hPa Calm   2 km/h 97% 0.0 mm
07:35 6 °C 5 °C 1031.2 hPa Calm   3 km/h 97% 0.0 mm
07:40 6 °C 5 °C 1031.3 hPa NNE 2 km/h 5 km/h 97% 0.0 mm
07:45 6 °C 5 °C 1031.6 hPa NNE 2 km/h 10 km/h 97% 0.0 mm
07:50 6 °C 5 °C 1031.4 hPa North 2 km/h 10 km/h 97% 0.0 mm
07:55 6 °C 5 °C 1031.5 hPa NNE 2 km/h 5 km/h 97% 0.0 mm
08:00 6 °C 5 °C 1031.5 hPa NNE 2 km/h 3 km/h 97% 0.0 mm
08:05 6 °C 5 °C 1031.4 hPa NNE 2 km/h 5 km/h 97% 0.0 mm
08:10 6 °C 5 °C 1031.7 hPa NNE 2 km/h 5 km/h 97% 0.0 mm
08:15 6 °C 5 °C 1031.6 hPa Calm   5 km/h 97% 0.0 mm
08:20 6 °C 5 °C 1031.8 hPa Calm   5 km/h 97% 0.0 mm
08:25 6 °C 5 °C 1031.6 hPa Calm   3 km/h 97% 0.0 mm
08:30 6 °C 5 °C 1031.4 hPa Calm   3 km/h 96% 0.0 mm
08:35 6 °C 5 °C 1031.6 hPa NNE 2 km/h 5 km/h 96% 0.0 mm
08:40 6 °C 5 °C 1031.6 hPa North 2 km/h 5 km/h 96% 0.0 mm
Juneau County Weather
Compliments of Weather Underground - 4 mb